カタログに戻る

STARLINK-6369

運用中通信VLEO
NORAD 57374·PAYLOAD·🇺🇸 United States

打ち上げ Jul 16, 2023 から Cape Canaveral Space Force Station

Loading…

次のパス (今後24時間)

TLE

最新Source: CelesTrak SupGP

元期: Sep 14, 2026, 21:56 UTC

1 57374C 23099AY  26257.91437500  .00022112  00000+0  80110-3 0  2577
2 57374  42.9992 235.1138 0000936 252.1581 208.7880 15.27559966    17

AllMySatでSTARLINK-6369をリアルタイム追跡

Download on the App Store